2024-236B (62264 NORAD) Tracking and Keplerian Element Data

This shows tracking and keplerian element data for the satellite.

Feedback or suggestion? Click here.




ElementValue
Catalog62264
Name2024-236B
Epoch Orbit943
Epoch Day34.9756267
Epoch Year2025
RAAN124.6649
Inclination58.5524
Eccentricity0.0049967
Argument of Perigee255.607
Mean Anonmoly103.9471
Mean Motion15.80945314
Decay Rate0.00076036
L11 62264U 24236B 25034.97562670 .00076036 11543-4 36638-3 0 9992
L22 62264 58.5524 124.6649 0049967 255.6070 103.9471 15.80945314 9434



Live tracking and technical data element details for 2024-236B (NORAD 62264). 2024-236B can be tracked NOW for your location showing map with azimuth and elevation plus other details from your city location.







IsCatalogInMostPopularTable: catalog: 62264, numindb: 11
Update: records affected: 1



GetName: 62264 2024-236B

Hit Count: updated at: Mon, 19 May 2025 02:53:53 GMT